Wind_Speed
10 11 12 12 12 13 14 15 16 17 17 17 19 21 23 24 25 27 29 30 31 31 31 32 33 32 31 31 30 31 35 36 31 29 28 27 29 32 33 36 39 39 38 39 40 38 36 34 33 33 29 25 23 21 20 19 17 16 15 15 15 15 14 14 15 16 16 17 16 16 17 19 21 22 22 23 24 25 25 25 25 26 27 28 29
10 12 12 13 13 13 15 16 17 17 18 18 19 20 22 23 24 26 28 30 31 31 32 33 33 32 31 31 30 30 34 34 31 28 27 28 30 31 33 37 39 37 36 37 36 33 32 31 31 30 27 24 22 21 20 19 18 17 17 17 17 16 15 15 16 17 17 17 17 18 19 21 23 23 24 25 26 26 27 27 26 27 28 29 30
12 12 13 13 13 14 15 16 17 18 18 19 20 21 22 22 24 26 28 30 31 32 33 34 33 32 30 31 31 31 32 32 29 28 28 29 29 30 33 37 39 37 36 35 33 32 31 30 30 29 26 24 23 21 21 20 19 19 19 18 15 13 13 14 15 17 17 16 17 19 21 24 25 26 26 27 28 28 29 29 28 29 30 30 31
13 13 14 13 14 15 16 17 18 19 19 20 21 22 22 22 23 26 27 29 30 31 32 33 34 32 31 31 31 31 30 29 28 29 30 30 29 30 33 36 38 37 34 32 31 30 30 31 30 28 26 25 24 23 23 21 20 19 17 14 12 11 12 12 13 14 16 17 17 19 22 25 27 27 28 30 30 30 30 31 31 31 31 32 33
14 15 15 15 15 15 17 18 19 21 21 21 21 22 22 22 23 25 27 29 30 31 32 34 35 34 32 32 31 30 30 29 30 30 30 30 30 31 32 35 36 33 30 29 28 28 29 30 30 28 27 26 25 25 23 20 19 17 13 11 10 10 10 11 12 14 16 18 19 20 22 24 27 28 29 31 32 32 32 32 33 33 34 35 36
16 17 17 17 17 17 18 19 20 21 22 22 21 22 23 22 23 24 26 28 30 32 34 34 35 34 34 32 30 30 30 30 29 29 29 29 30 31 32 32 32 29 26 26 26 26 28 29 29 28 27 27 26 24 22 20 18 15 11 10 9 10 11 12 14 15 17 19 21 22 22 23 26 27 28 29 31 33 34 35 35 35 36 38 39
18 19 20 20 19 20 19 19 20 22 23 23 22 23 23 23 23 23 25 27 29 31 33 33 33 34 33 31 30 31 31 30 29 28 29 29 29 31 31 30 29 26 24 26 26 26 27 28 28 27 27 25 24 22 22 20 17 13 10 8 9 11 13 14 16 17 19 20 21 22 23 23 24 26 27 28 30 33 34 35 38 39 39 41 43
21 21 22 22 22 22 22 21 22 23 24 24 23 24 24 24 23 23 25 27 29 30 31 32 33 33 32 30 31 32 31 29 28 28 28 28 29 30 30 28 27 25 24 25 27 26 26 26 27 26 24 23 23 23 22 19 14 9 7 8 11 13 15 16 17 18 20 21 22 22 22 23 23 24 25 26 29 31 31 33 38 41 41 43 45
25 24 25 26 25 26 25 24 24 25 25 25 24 24 25 25 23 24 25 27 29 30 31 33 32 31 31 31 30 29 26 25 26 26 26 27 28 29 28 26 25 24 24 26 27 26 27 27 26 25 24 24 24 23 19 15 10 7 7 10 13 15 16 17 17 19 20 21 21 20 22 24 24 24 25 26 28 31 32 34 38 41 43 46 48
27 29 30 29 28 29 29 28 27 27 26 26 25 24 25 25 24 24 25 27 28 29 29 29 28 28 29 29 28 26 24 23 23 23 25 26 26 26 25 25 24 24 24 27 28 28 28 28 26 25 25 25 23 20 16 12 8 7 8 11 14 16 16 17 18 19 20 20 20 21 24 26 25 25 27 29 31 33 36 37 40 43 45 47 51
30 33 33 30 30 31 31 31 30 29 28 27 26 25 25 25 24 24 24 25 26 26 26 25 25 26 27 27 26 24 23 22 22 22 22 22 22 22 23 23 23 22 24 27 30 30 30 28 26 26 26 24 22 18 13 9 6 7 10 13 16 17 17 18 19 20 21 21 22 24 26 28 29 29 31 33 35 37 39 40 42 44 44 45 50
33 35 33 31 31 31 32 32 32 31 29 29 28 26 25 25 25 24 24 24 24 25 26 26 25 25 25 25 25 23 21 22 23 22 21 20 20 21 21 21 21 22 25 29 31 32 30 28 27 26 25 23 20 15 10 7 7 9 13 16 18 19 20 20 21 22 23 24 26 27 28 30 32 33 34 36 38 40 42 42 42 41 40 42 45
34 35 33 31 30 30 31 33 33 32 30 29 28 26 25 25 26 24 23 24 25 25 26 27 25 23 23 23 24 23 21 23 24 23 22 22 22 21 20 20 21 23 26 29 31 31 30 29 28 27 26 23 18 12 8 7 8 12 16 18 20 22 23 23 23 23 24 25 28 30 30 31 34 36 36 37 39 42 43 43 42 38 38 41 42
37 35 32 31 30 29 31 32 32 32 30 30 29 27 25 25 25 24 23 23 24 25 25 26 26 24 22 22 23 23 22 23 25 25 24 23 22 21 20 20 22 24 27 30 31 30 29 27 27 27 26 21 14 10 8 8 11 15 18 21 23 24 24 25 24 24 25 26 29 32 32 33 36 38 38 37 37 38 39 39 39 36 37 40 42
36 34 32 31 29 28 29 30 30 31 31 31 30 27 25 25 25 24 23 23 24 24 24 25 25 23 22 22 22 22 21 22 24 24 24 23 22 20 20 22 24 26 28 30 29 28 26 25 25 25 21 16 11 8 8 10 14 18 21 23 25 25 26 26 25 24 25 27 30 32 34 35 37 38 38 36 33 32 32 33 33 34 36 39 41
35 33 32 31 29 28 28 28 29 30 31 32 30 27 25 24 25 24 23 22 24 25 24 24 23 21 20 20 20 19 19 19 21 22 23 23 21 20 21 23 26 27 28 28 27 25 24 24 24 21 17 13 10 8 10 14 18 21 24 25 26 27 28 27 26 26 27 29 31 33 34 35 35 34 32 29 26 26 28 31 32 31 33 35 37
34 32 31 31 30 29 27 27 28 30 31 31 29 25 23 24 24 23 21 21 23 24 23 22 21 19 18 18 18 18 18 18 18 20 21 22 22 21 23 25 27 27 27 27 26 25 25 24 23 19 16 12 10 10 14 18 21 24 26 26 27 28 29 28 28 28 29 30 31 32 32 32 32 31 30 27 26 25 27 31 32 30 30 33 35
32 31 31 30 30 28 26 26 27 28 29 28 25 22 22 23 22 19 17 18 20 21 20 19 18 18 17 17 17 16 17 17 17 18 19 20 21 22 25 27 28 27 27 28 27 27 26 25 22 18 15 13 13 15 19 21 24 25 27 27 29 30 29 29 29 30 30 30 30 30 30 31 31 31 30 29 27 26 25 27 28 27 28 31 33
30 29 28 28 27 25 25 24 25 26 25 23 21 20 21 21 20 17 16 17 18 18 18 17 18 17 17 16 16 16 16 16 16 17 18 19 21 23 26 29 29 28 29 29 29 28 27 24 21 18 15 15 17 20 22 23 25 26 27 29 30 30 29 29 29 29 29 29 29 30 30 30 29 29 30 29 28 26 24 24 25 25 26 28 30
26 26 25 24 24 24 23 23 23 23 21 20 19 19 20 20 19 17 17 17 17 17 17 17 17 16 15 15 15 15 15 15 16 16 18 19 20 22 25 29 29 29 29 29 29 28 26 23 20 18 18 19 21 22 23 25 26 27 28 29 30 29 27 27 27 27 28 28 28 28 28 28 29 29 30 30 28 25 23 22 22 21 22 25 27
25 24 24 23 22 22 21 21 21 20 20 19 19 19 20 20 19 18 18 18 18 18 17 16 15 14 14 14 14 15 15 15 16 17 17 18 18 19 23 27 29 29 28 28 27 26 25 23 21 20 21 22 23 24 24 25 26 28 29 28 27 26 25 25 26 26 26 27 27 27 28 29 30 29 27 25 23 22 22 23 23 23 24 25 26
25 24 23 22 21 21 20 20 20 20 19 19 19 20 21 21 20 20 19 18 18 17 16 15 14 14 14 14 14 15 16 16 17 17 17 17 16 16 19 22 25 27 26 26 26 25 24 23 22 22 23 23 24 25 25 26 27 28 27 25 23 23 24 24 24 24 25 25 27 28 28 28 28 27 24 23 23 23 24 25 26 28 28 27 27
25 23 22 21 20 19 19 19 19 18 18 19 20 21 22 22 22 21 20 18 17 16 14 14 14 14 15 16 17 17 16 17 17 17 17 17 17 16 17 18 21 22 23 24 24 24 24 24 23 24 24 24 25 25 25 26 25 24 22 21 21 22 22 22 22 23 25 26 27 28 28 27 27 27 26 26 26 26 27 28 29 29 30 30 30
24 22 21 20 19 18 18 17 17 18 18 19 21 21 22 23 22 21 20 18 17 15 14 14 15 17 18 18 17 16 16 16 16 16 16 16 17 18 18 19 20 21 22 23 23 23 24 24 24 24 24 24 25 25 24 23 21 19 19 19 20 20 20 21 22 24 25 26 26 27 27 27 27 28 28 28 28 28 28 29 30 30 31 32 33
22 21 20 19 17 17 17 17 18 18 19 19 20 21 22 23 22 21 20 18 16 15 16 16 17 18 17 16 16 15 15 15 16 17 17 18 18 20 21 21 22 22 23 23 24 24 24 24 24 24 24 24 23 21 20 18 17 17 18 18 18 19 20 22 24 25 26 26 27 27 28 28 28 28 29 29 29 29 30 31 31 31 32 32 33
21 20 19 18 17 17 18 18 19 19 19 19 19 20 21 21 21 20 19 18 17 16 17 18 18 17 17 16 16 16 16 16 17 18 19 20 21 22 23 23 24 24 24 24 24 24 24 23 23 22 21 20 18 17 16 16 16 16 16 16 18 20 21 23 24 26 27 27 28 28 29 29 29 29 30 30 31 31 32 33 34 34 34 35 36
19 19 18 18 18 18 19 20 20 20 21 20 19 19 19 18 19 19 18 18 19 19 19 18 18 18 18 18 18 17 17 17 18 20 21 22 22 23 24 24 25 25 24 24 23 22 21 20 19 17 16 15 14 14 15 14 14 14 16 17 19 20 22 24 25 26 27 28 28 28 28 29 30 30 30 31 31 31 31 32 33 34 34 34 35
18 17 17 18 19 19 20 20 21 21 21 20 20 19 19 18 18 19 18 18 18 19 18 18 18 18 19 19 18 18 18 18 18 19 19 20 21 22 22 22 22 21 20 19 18 17 15 14 14 13 13 13 13 13 13 13 14 16 17 19 20 22 23 24 25 26 26 27 27 28 28 28 29 29 30 30 30 30 30 29 30 31 32 32 33
17 17 18 18 19 19 20 20 20 21 22 22 21 20 20 20 19 18 17 16 16 15 16 17 17 17 17 17 17 17 17 17 17 17 16 17 17 17 17 17 16 16 15 13 13 12 12 12 12 12 12 11 11 11 12 13 14 16 18 19 21 23 24 25 25 25 26 26 27 27 27 27 28 29 29 29 29 28 28 28 28 29 30 30 30
17 17 18 18 19 19 20 20 21 21 22 22 23 22 21 19 17 16 16 16 16 16 16 17 17 16 16 16 16 15 14 15 17 17 17 17 16 15 15 14 13 13 12 12 11 11 11 11 11 11 10 10 10 11 12 13 14 16 18 20 22 24 24 25 25 25 25 25 25 26 26 27 28 28 29 29 28 27 27 27 27 28 28 28 29
18 18 18 19 19 20 20 20 21 21 22 22 23 23 23 21 19 16 16 17 18 18 18 18 18 17 17 18 18 17 17 16 17 17 17 16 15 14 14 13 13 12 12 12 12 12 11 10 9 9 9 9 10 11 12 14 15 17 19 21 23 24 24 24 24 24 24 24 24 25 26 26 27 27 27 27 27 26 26 25 25 25 26 26 27
17 17 18 19 19 19 19 20 21 22 23 23 23 23 24 25 24 22 19 19 19 20 20 20 20 20 19 18 18 19 19 18 17 16 15 15 14 14 13 13 13 12 12 12 11 10 9 8 8 9 9 10 12 13 14 15 16 18 19 21 22 24 24 24 24 24 24 24 24 24 25 25 26 25 25 25 25 25 24 24 24 24 25 25 25
15 16 18 19 19 20 20 21 22 23 24 24 24 24 25 26 27 26 24 23 22 21 21 21 21 21 20 20 19 18 18 18 17 16 16 15 15 14 14 13 13 12 12 11 10 9 8 8 9 10 11 12 13 14 15 16 17 18 20 21 22 23 24 24 24 23 23 23 24 24 24 24 24 23 23 23 23 23 23 23 24 24 24 25 25
16 17 19 19 20 21 22 23 23 24 24 24 24 25 25 25 25 25 26 26 25 24 23 21 20 20 20 20 20 19 18 17 17 17 16 16 15 15 14 13 13 13 12 10 9 9 9 9 10 11 11 12 13 14 15 17 18 19 20 21 22 23 23 23 23 22 22 23 23 23 23 23 22 21 21 21 22 22 22 22 23 23 23 24 25
19 20 21 22 23 24 24 24 24 24 24 24 24 25 25 25 24 24 24 26 27 26 25 23 22 21 20 20 20 19 18 17 17 17 16 16 15 15 15 14 14 13 11 10 9 9 9 10 11 11 12 13 14 15 16 18 19 20 21 22 22 22 22 22 22 22 22 22 22 22 21 21 20 20 20 20 20 21 21 21 22 22 22 23 24
22 22 23 24 24 24 24 24 24 23 24 24 24 24 25 24 23 24 24 24 25 25 25 24 24 22 21 20 19 19 18 18 17 17 16 16 16 16 15 14 13 11 10 9 10 10 10 11 11 12 12 13 15 16 17 19 20 21 22 22 22 22 22 22 22 22 22 22 21 20 19 19 19 19 19 19 19 20 21 21 20 21 21 22 23
24 24 24 24 23 23 23 23 23 23 23 24 24 24 24 23 22 22 23 23 23 22 22 23 23 22 22 21 20 19 18 18 18 17 17 17 17 16 14 13 11 10 9 9 10 10 10 11 11 12 13 14 16 17 19 20 21 22 22 22 22 22 22 22 22 22 21 21 20 19 18 18 18 18 18 18 18 18 19 19 20 20 20 20 21
25 24 24 24 23 23 23 23 24 24 23 23 23 22 23 22 22 21 21 21 21 21 20 20 20 19 20 20 20 19 19 18 18 18 17 17 16 14 12 11 10 10 10 10 10 10 11 11 12 13 14 15 17 18 20 21 22 22 22 22 22 22 22 22 22 21 21 20 19 18 17 17 17 18 18 18 18 18 18 19 19 19 19 20 20
23 22 22 22 22 22 23 23 23 23 23 22 22 22 21 21 21 20 20 20 20 20 19 18 18 18 18 18 18 19 19 18 18 18 17 15 14 13 11 10 10 10 10 11 11 11 11 12 13 14 15 17 18 20 21 21 22 22 22 22 22 22 22 22 22 21 20 19 18 17 17 17 17 18 18 17 17 18 18 18 18 19 19 20 20
23 22 21 21 21 21 21 21 21 22 22 22 22 21 21 20 20 20 20 20 19 19 18 18 18 17 17 17 17 17 18 17 17 16 15 14 13 12 11 11 11 11 11 12 12 12 13 13 14 16 17 18 19 20 21 22 22 23 22 22 22 22 22 22 22 21 20 19 18 17 17 17 17 17 17 17 17 17 17 18 18 18 19 19 20
24 22 22 21 20 20 20 20 20 20 20 20 20 20 20 20 20 20 20 20 20 19 18 18 17 17 16 17 17 17 17 16 16 15 14 14 13 12 12 12 12 12 12 13 13 14 14 15 16 17 18 19 20 21 22 22 22 22 22 22 22 22 22 22 22 21 20 20 19 18 17 17 18 17 17 16 16 16 17 17 18 18 18 18 19
23 21 21 20 20 20 20 20 20 20 19 19 20 20 20 20 21 21 21 20 19 18 18 17 17 17 17 18 18 18 17 16 16 15 14 13 13 12 12 13 13 13 13 14 15 15 16 16 17 18 19 20 20 21 22 22 22 22 22 22 22 22 22 22 22 21 21 20 19 18 18 18 18 18 18 17 16 16 16 17 17 17 18 17 18
22 21 20 20 21 21 21 21 20 20 20 21 21 21 21 21 21 21 20 20 19 18 18 17 18 18 19 20 19 18 17 16 15 15 14 14 13 13 13 13 14 14 14 15 16 16 17 18 18 19 19 20 20 21 21 22 22 22 22 22 22 22 22 22 21 21 21 21 20 19 19 19 19 18 18 17 17 16 16 17 17 17 17 17 17
21 20 21 21 22 22 22 21 21 21 21 22 22 22 21 21 21 20 20 20 19 19 18 18 18 19 20 19 18 16 15 15 15 15 15 14 14 14 14 14 14 15 16 16 17 17 18 19 19 20 20 20 21 21 22 22 22 23 22 23 23 22 22 22 21 22 22 22 20 20 20 19 19 19 18 18 18 17 16 16 17 17 17 16 16
21 21 22 22 22 22 22 21 21 21 22 22 22 22 22 21 21 21 21 21 20 20 20 19 20 20 19 17 15 15 15 15 15 15 15 15 15 15 15 15 15 16 17 17 18 18 19 19 20 20 20 21 21 22 23 23 23 23 23 23 23 23 22 22 22 22 23 23 21 21 21 20 20 19 19 18 18 18 17 16 16 16 16 16 16
23 23 23 22 22 21 21 21 21 22 22 22 22 22 22 22 22 22 21 21 21 21 20 20 20 19 18 16 15 15 16 16 15 15 15 15 15 15 15 16 17 18 18 18 19 19 19 20 20 20 21 22 22 23 23 23 23 23 23 23 24 23 22 22 23 23 23 23 23 22 22 21 21 20 19 19 19 18 17 16 16 16 16 15 15
23 23 22 21 20 20 20 20 21 22 22 22 22 22 22 22 22 22 22 22 21 21 20 20 19 17 16 16 16 16 16 16 16 16 16 16 16 16 16 17 18 19 19 19 20 20 20 21 21 21 22 23 23 24 24 24 24 24 24 24 24 24 23 23 23 24 24 24 23 23 23 22 21 21 20 20 20 19 17 16 16 16 16 15 15
23 22 22 21 20 20 20 20 21 22 22 22 22 22 22 22 21 22 22 21 21 20 20 19 18 17 17 17 17 17 17 17 17 16 16 16 17 17 18 19 19 20 20 20 21 21 21 22 22 22 23 23 24 24 24 25 25 25 25 25 25 24 24 24 24 24 24 24 24 24 23 23 22 21 21 21 20 19 18 17 16 16 16 15 15
22 22 22 21 20 20 20 20 20 20 21 21 21 21 21 21 20 20 20 20 20 19 19 18 18 17 17 18 18 18 17 17 17 17 17 17 18 19 19 20 20 21 21 21 21 22 22 23 23 23 24 24 25 25 25 25 25 25 25 25 25 25 25 25 25 25 25 25 24 24 24 23 23 22 22 21 21 20 19 18 17 17 17 16 15
22 22 21 21 20 20 20 19 19 19 19 20 20 20 20 19 19 19 19 19 19 18 18 18 18 18 18 18 18 18 17 17 17 17 17 18 19 20 20 21 22 22 22 22 22 22 23 23 24 25 25 25 26 26 26 26 25 25 25 26 26 26 26 26 25 25 25 24 25 25 25 24 24 23 22 22 22 21 21 19 18 18 17 16 15
21 20 20 20 20 20 19 19 19 19 19 19 19 19 18 18 18 18 18 18 18 18 18 18 18 18 18 18 17 17 17 17 18 18 18 19 20 20 21 22 23 23 23 23 23 24 24 24 25 26 26 26 27 27 27 26 26 25 25 26 26 26 26 26 25 25 24 25 25 25 25 25 24 24 23 22 22 22 22 21 20 19 18 17 16
Wind_Direction
290 295 296 294 294 295 292 290 291 293 293 286 278 272 266 260 253 248 244 240 236 235 234 233 236 237 237 238 242 246 244 243 243 242 243 249 250 250 252 251 250 250 246 238 233 234 237 237 236 232 226 226 230 230 228 224 217 211 209 211 214 217 221 230 240 248 262 275 282 285 285 287 290 293 296 299 300 301 301 303 304 304 303 304 305
283 286 287 286 289 292 291 289 288 289 291 288 281 274 269 264 255 247 243 239 235 233 234 236 239 239 237 239 244 246 244 244 245 244 246 249 249 250 254 253 249 247 243 238 237 238 239 238 234 226 221 225 228 225 219 214 208 206 209 213 216 224 235 247 258 268 276 282 287 288 286 286 288 290 293 295 297 298 299 300 301 301 301 303 304
268 270 273 276 281 286 287 288 287 285 284 285 284 278 272 266 258 249 242 238 234 233 235 237 240 241 240 242 245 244 243 244 246 247 247 248 250 252 254 254 250 247 244 241 240 240 238 235 229 222 221 224 223 217 210 206 206 210 213 217 224 239 255 267 275 281 288 291 293 293 291 288 288 289 290 291 294 296 297 297 298 299 301 302 302
265 265 266 270 275 281 284 285 286 284 281 279 280 280 275 269 261 253 245 239 233 233 236 238 241 243 242 243 244 241 242 245 247 249 248 246 250 253 255 255 251 246 244 241 240 239 236 231 225 221 222 222 217 210 205 205 210 213 215 222 237 254 265 276 284 291 298 300 300 299 296 293 291 289 290 290 293 295 296 296 297 299 301 301 301
266 265 264 266 269 274 280 283 285 284 280 275 275 277 276 271 264 256 248 241 235 233 236 238 240 242 242 244 244 240 241 246 247 248 249 248 250 254 257 257 250 242 240 240 239 237 233 227 223 221 221 219 212 205 204 208 210 210 215 229 244 258 270 282 292 299 303 304 306 305 299 295 292 290 290 292 294 296 296 297 299 300 300 299 299
264 265 266 267 268 271 274 278 282 282 279 275 272 273 273 270 265 258 250 242 236 234 236 238 239 240 242 244 244 244 247 248 245 245 249 250 250 254 258 255 247 240 238 239 238 233 228 224 222 221 220 217 211 206 205 205 204 207 219 234 250 269 284 294 299 301 303 305 307 305 302 298 296 295 295 295 297 298 299 300 300 299 300 299 298
264 268 270 270 270 271 273 275 277 277 277 274 270 269 269 268 263 258 251 244 238 236 237 238 238 240 242 244 245 248 251 248 243 243 249 251 250 253 257 253 245 237 235 235 233 228 224 222 220 218 217 214 210 206 203 201 202 210 227 249 276 293 300 302 302 303 305 306 306 305 303 302 301 301 302 302 302 303 306 308 303 299 301 301 300
265 271 274 274 273 272 271 271 271 272 272 271 268 266 265 265 261 255 249 244 240 238 237 238 239 240 242 243 245 248 247 243 241 243 249 251 249 250 254 253 244 235 231 230 227 222 218 216 215 214 211 208 204 202 201 201 205 219 250 286 305 311 310 307 306 306 307 306 306 305 304 303 303 305 306 309 310 309 313 314 308 303 305 304 302
266 273 276 275 275 272 269 268 268 268 268 268 268 265 263 262 259 252 247 243 240 237 236 238 239 238 239 242 245 245 243 242 244 247 249 250 248 249 252 251 242 233 228 225 220 215 211 209 208 207 203 199 197 197 198 202 214 244 285 308 317 319 317 312 309 309 307 306 306 305 304 302 303 306 308 311 314 313 313 314 310 307 309 307 304
271 277 279 275 273 271 268 267 267 266 266 267 267 264 261 259 257 252 246 241 239 236 235 236 236 235 238 241 241 240 240 244 248 252 252 249 246 247 247 245 238 231 226 221 213 207 205 204 202 199 197 195 195 196 199 207 231 272 301 317 324 325 322 316 311 309 306 305 304 302 301 299 301 308 308 309 313 313 311 311 310 309 310 308 305
270 277 278 274 270 268 266 265 265 266 266 266 265 262 259 257 255 253 247 240 236 234 232 231 232 236 240 237 235 237 241 245 247 248 246 243 241 243 244 242 237 230 224 220 213 205 202 201 198 196 197 196 197 197 202 220 258 294 313 324 327 327 325 318 311 306 303 302 300 298 297 298 301 306 307 308 311 312 311 311 311 310 309 307 304
268 274 274 272 268 264 262 262 263 264 265 265 264 261 257 253 251 251 246 238 233 231 230 230 232 239 240 234 233 237 240 241 241 238 235 236 237 239 240 239 235 229 222 218 214 210 206 202 198 197 198 198 198 200 212 245 283 307 319 325 325 325 323 317 312 306 301 299 297 296 298 300 301 304 309 311 312 312 312 310 309 308 306 303 301
274 274 271 270 268 262 259 259 261 263 264 264 262 258 253 250 248 248 245 237 233 231 230 230 233 241 243 237 234 236 238 238 236 231 230 233 234 235 234 231 230 229 223 218 216 215 212 207 201 199 198 197 199 209 232 267 295 311 318 320 320 320 319 317 313 306 299 296 295 296 300 303 301 304 311 314 312 312 311 310 309 308 305 303 301
278 275 271 270 267 261 258 258 259 261 263 262 259 255 251 247 245 245 243 237 232 231 230 231 235 243 245 241 236 236 238 239 234 229 229 231 232 232 227 222 223 226 224 219 218 217 214 211 207 201 197 197 204 223 248 278 300 309 312 312 313 315 315 313 309 302 296 294 294 295 300 304 304 306 311 313 312 311 310 309 309 308 306 304 303
276 275 274 271 266 260 258 258 259 260 261 261 258 253 248 243 240 240 240 235 230 229 230 231 235 241 243 241 237 235 237 236 232 231 232 231 230 226 221 218 218 220 219 216 216 217 215 212 206 199 196 200 213 235 261 287 300 303 306 308 309 310 309 307 304 300 295 292 292 295 299 303 305 307 309 310 310 309 307 305 303 304 304 303 304
276 277 276 273 269 264 262 261 259 260 259 258 255 250 245 240 237 237 237 233 227 225 228 231 234 237 237 235 232 231 231 230 229 231 233 233 229 221 216 216 215 214 214 212 212 213 209 202 197 196 200 211 225 247 276 290 296 299 303 304 303 303 304 304 302 297 294 292 293 296 300 303 306 309 311 313 311 309 307 305 306 309 309 308 309
276 275 273 273 271 269 266 262 259 258 257 255 252 247 241 237 234 235 234 228 222 223 227 229 229 231 232 231 230 231 232 231 230 231 232 232 227 217 212 211 212 211 210 209 207 204 199 194 195 201 209 220 238 265 282 288 293 297 299 298 298 299 301 302 300 297 296 295 297 301 305 309 312 314 315 314 313 314 314 312 316 321 317 311 309
273 272 271 272 271 269 266 261 258 256 254 252 249 244 236 231 231 230 226 220 218 221 224 224 224 226 227 228 230 231 233 233 232 231 230 229 225 218 211 208 207 206 205 204 201 197 195 195 200 208 219 235 258 274 281 286 291 294 294 294 296 298 301 301 299 298 298 300 305 310 313 314 313 313 315 317 319 323 322 319 322 322 314 308 308
273 272 271 271 270 267 263 259 255 253 251 248 244 237 229 223 220 217 213 213 215 217 218 219 221 222 225 228 232 234 235 234 232 230 228 226 224 219 211 205 201 201 202 200 196 194 196 201 206 217 233 251 267 274 279 284 287 290 291 293 296 299 301 300 298 300 305 309 313 313 312 313 315 317 321 323 325 327 325 321 320 317 309 307 308
273 271 270 268 267 264 260 256 252 249 246 241 234 226 217 211 209 207 206 209 212 212 214 217 220 222 227 231 235 236 235 232 229 227 226 223 220 215 209 202 199 199 199 199 197 197 200 207 216 229 245 257 265 271 276 280 284 286 289 293 296 299 299 300 303 309 312 312 311 313 316 320 323 323 324 326 328 328 324 319 317 313 307 303 302
274 273 271 269 266 262 257 252 247 242 236 229 222 213 206 202 203 203 204 207 210 211 214 219 222 224 226 228 229 228 226 225 225 224 221 217 213 209 206 202 198 198 198 200 203 206 210 216 227 238 248 255 262 267 272 277 280 285 289 294 297 299 301 306 310 311 310 310 313 318 323 324 323 324 326 326 324 319 314 310 308 307 306 304 303
275 273 271 267 263 258 252 245 239 233 226 218 210 203 198 196 198 202 204 207 210 212 214 216 217 218 218 218 218 217 215 215 216 212 206 202 199 197 198 199 199 200 202 205 208 212 217 224 232 240 248 254 260 266 271 276 282 287 292 296 299 301 304 307 307 307 310 315 320 322 323 323 323 323 322 317 313 309 306 305 303 302 303 304 305
274 271 267 263 258 251 244 237 230 223 215 208 202 197 195 194 197 201 204 206 207 208 209 210 210 211 212 212 211 210 208 206 203 197 192 188 184 180 183 190 196 200 204 208 210 214 220 226 233 240 247 253 260 266 273 279 285 289 293 296 298 300 302 303 307 313 318 321 322 321 321 322 321 320 318 317 316 315 311 309 308 307 308 308 308
270 266 261 255 249 240 232 225 218 211 205 200 196 193 193 195 197 199 201 204 204 204 203 204 205 207 208 207 205 204 202 198 192 187 184 181 177 173 175 182 189 195 200 206 211 216 222 228 235 241 248 255 263 270 276 281 286 289 292 295 297 300 305 310 315 319 320 320 320 320 321 322 322 322 322 321 320 319 316 314 314 314 314 314 313
262 258 253 246 237 228 219 211 205 202 197 195 194 193 193 194 196 197 198 199 201 202 203 204 204 204 202 199 197 195 192 187 183 178 175 175 175 175 176 180 186 192 197 203 210 216 223 230 237 245 253 260 267 273 278 281 286 289 292 296 302 308 314 316 318 318 319 319 321 323 324 325 325 325 323 323 322 322 321 320 319 320 320 319 318
253 247 241 234 225 218 210 202 197 193 190 189 191 194 195 195 196 197 197 197 199 203 206 205 201 196 193 188 186 183 180 177 177 176 176 177 178 179 181 184 189 195 200 206 213 220 228 235 243 251 258 264 269 273 277 281 286 292 298 305 312 316 316 316 317 319 320 323 325 326 326 325 324 324 323 323 324 325 325 324 324 325 326 324 324
244 237 229 222 215 209 204 199 194 188 185 185 186 189 192 194 197 198 199 200 202 203 203 200 193 187 182 179 175 174 173 173 175 178 180 182 184 186 189 193 197 202 208 214 221 229 235 241 247 253 257 262 267 271 277 284 292 301 309 313 315 315 315 317 320 322 324 325 325 324 324 323 323 323 323 323 326 327 328 327 326 326 327 326 325
233 227 220 212 206 200 197 195 192 186 183 183 184 185 186 189 194 199 201 205 206 203 197 190 185 181 177 173 171 171 172 173 175 176 179 182 186 191 195 200 204 209 214 218 223 228 233 237 243 248 253 260 267 275 285 297 305 311 313 314 314 315 317 320 323 323 323 323 322 321 321 321 321 321 322 324 326 327 327 326 326 325 326 326 325
222 217 212 206 201 196 192 191 191 188 185 182 181 182 185 189 193 196 198 199 198 195 188 181 178 176 174 173 173 173 172 170 169 169 171 175 180 186 190 194 198 202 206 209 212 218 225 231 238 246 253 262 273 285 297 305 310 312 314 315 316 317 320 322 322 322 320 320 320 320 319 319 320 321 322 324 326 326 326 326 326 326 326 326 326
214 209 206 202 198 195 192 190 191 192 190 186 183 181 182 185 189 191 191 187 181 178 178 177 175 175 174 174 173 169 168 166 164 164 165 168 172 177 180 183 187 191 196 201 207 215 222 230 238 248 259 271 282 291 298 304 309 312 314 316 316 317 319 319 319 318 318 317 318 318 317 318 319 321 322 324 325 325 325 326 326 326 326 326 327
206 202 200 198 197 195 193 192 192 193 193 191 188 185 180 176 175 179 182 180 175 174 175 175 175 175 175 173 169 164 165 168 167 166 166 167 171 174 178 183 188 193 198 204 210 217 223 232 244 256 267 278 285 293 300 306 310 313 314 315 315 315 315 316 315 315 316 316 315 315 316 317 319 320 322 323 323 324 325 325 325 326 327 327 328
203 199 196 195 195 195 194 193 193 193 193 191 190 189 184 176 171 172 175 178 178 178 177 176 176 175 173 172 170 168 168 170 171 170 171 174 177 180 184 189 194 200 204 209 215 222 229 238 252 265 275 284 292 299 305 309 311 312 312 312 312 312 312 312 313 314 314 313 313 313 315 316 318 320 321 321 321 322 323 324 326 327 328 328 330
200 199 196 194 194 195 195 196 195 194 193 191 189 189 188 182 176 174 174 177 180 180 180 179 177 175 172 171 172 174 174 174 175 177 179 181 185 188 192 196 200 206 212 216 222 231 239 249 263 276 285 293 299 303 307 309 310 310 311 310 309 310 309 309 310 311 311 310 310 312 314 315 317 318 319 319 320 321 323 325 327 328 328 328 330
197 201 201 199 198 198 196 196 195 193 192 191 188 187 189 189 186 182 180 179 180 180 181 180 178 176 176 175 175 177 179 180 182 185 187 189 192 195 198 201 206 212 218 222 229 241 254 265 276 285 290 295 300 303 306 308 309 308 308 307 307 307 307 307 307 307 307 307 307 309 311 313 314 316 317 317 319 321 323 325 326 327 328 329 331
195 201 205 204 201 198 195 193 192 190 190 189 188 189 190 192 192 192 189 185 183 181 180 179 178 179 181 181 181 183 183 185 189 192 193 196 199 202 204 206 209 215 222 231 241 254 265 273 280 287 292 296 301 304 305 307 307 306 306 305 305 305 304 303 304 303 303 304 305 307 309 310 312 314 315 317 320 321 323 325 325 326 328 328 331
196 200 203 203 201 198 194 191 190 189 189 189 191 192 193 194 195 195 192 189 187 185 182 180 179 180 184 187 188 189 190 192 195 198 200 202 205 208 209 210 213 219 228 241 254 263 271 278 284 290 295 299 302 303 304 305 305 304 304 303 303 302 301 300 300 300 301 302 303 304 306 307 309 311 313 317 320 320 321 323 324 325 326 327 330
197 197 198 197 197 196 193 190 189 190 191 192 193 193 193 194 196 196 193 191 189 188 187 185 185 187 189 192 193 194 196 199 202 204 206 208 210 211 212 213 219 228 239 249 258 265 272 279 285 291 295 298 300 301 302 302 302 301 301 301 300 298 297 297 297 297 298 299 300 301 303 304 307 309 312 315 317 317 319 321 322 323 325 326 328
196 195 194 192 191 191 191 189 188 189 191 192 193 194 194 194 194 195 194 192 191 192 192 193 194 197 199 200 200 200 202 205 209 211 213 214 215 215 215 218 225 236 245 252 259 265 272 278 285 290 293 296 297 298 298 299 298 298 298 297 296 295 294 294 294 295 296 296 297 298 299 301 304 306 309 313 315 316 318 320 320 322 324 325 327
195 193 193 191 188 189 190 190 189 189 191 193 194 195 195 195 193 192 193 193 194 196 198 200 202 204 206 207 207 208 210 212 214 215 217 219 221 222 226 230 236 242 250 256 261 267 273 279 285 289 291 293 295 295 296 295 295 294 294 293 292 291 291 291 292 293 293 293 293 294 296 298 301 303 307 310 313 314 316 318 319 321 323 325 326
191 188 188 190 190 191 192 194 194 193 193 194 195 196 196 195 193 193 194 196 199 202 205 208 211 210 209 209 211 215 217 217 218 219 221 224 226 229 234 240 244 250 256 262 266 271 276 281 285 288 290 292 293 293 293 292 291 290 290 289 288 288 288 289 290 290 290 289 289 290 292 295 297 300 303 307 309 311 313 315 317 319 322 324 325
191 186 186 188 190 192 193 195 197 197 197 198 199 199 199 198 198 198 200 202 206 209 212 213 215 214 211 209 212 216 218 219 222 225 226 228 230 234 239 244 250 256 261 266 271 276 280 283 286 288 289 290 290 290 290 289 288 287 286 285 286 286 287 287 288 288 287 286 287 288 290 293 295 297 300 302 304 307 310 312 315 318 321 322 323
190 186 186 188 191 193 194 196 197 199 201 203 204 204 204 205 206 207 208 210 213 216 218 217 216 213 211 211 213 216 218 221 226 229 230 232 235 239 244 250 255 261 266 270 275 278 281 284 286 287 288 288 288 288 287 286 285 284 283 284 284 285 285 285 285 285 284 284 285 287 288 290 293 295 296 298 299 302 305 308 311 314 317 319 321
187 186 189 193 194 195 198 200 201 203 205 207 209 211 211 211 212 213 214 217 219 221 222 221 219 216 215 216 218 219 221 226 230 233 234 236 240 244 249 254 260 265 269 273 276 279 282 284 285 286 286 286 286 286 284 283 282 282 282 283 283 283 284 284 283 283 282 281 282 285 287 289 290 292 293 294 296 298 300 304 306 310 313 316 318
189 191 195 198 198 200 202 203 206 208 210 212 214 215 214 215 216 217 218 221 222 223 224 222 221 220 220 222 223 226 229 233 235 236 237 239 243 248 253 258 264 268 272 275 278 280 282 283 284 285 286 285 284 283 282 281 281 281 282 282 283 283 283 283 281 280 280 280 281 284 286 287 289 289 289 290 291 293 296 299 302 306 309 312 314
197 200 202 203 204 206 207 208 210 212 213 215 217 217 217 218 218 220 222 223 224 224 224 221 220 221 223 226 230 233 236 238 238 238 240 242 246 252 257 262 267 271 274 277 280 281 282 284 284 285 285 284 283 282 281 281 281 282 281 282 282 282 282 280 278 277 278 280 282 284 285 286 287 287 286 285 286 288 291 294 297 301 305 308 311
204 206 207 208 210 211 213 213 213 214 215 217 219 220 221 221 221 221 223 224 224 224 223 221 221 223 226 230 235 238 240 241 241 241 244 248 252 257 263 266 270 274 276 278 281 282 283 284 284 284 284 283 282 282 282 282 282 282 282 282 282 282 281 279 277 276 277 278 280 283 285 286 286 285 283 282 282 283 286 289 292 296 300 304 307
208 209 210 212 213 214 215 215 216 216 218 219 221 223 223 224 223 223 224 224 223 222 221 220 222 226 231 237 240 241 242 243 243 245 249 254 258 263 267 270 273 276 278 280 282 283 283 284 284 283 282 282 282 281 282 282 281 282 282 282 282 282 280 278 276 276 276 277 280 282 284 285 284 283 282 280 279 279 281 284 287 291 295 299 302
212 212 213 213 213 214 215 216 218 220 221 222 223 223 224 225 225 225 225 224 221 219 219 221 225 231 236 240 242 242 242 244 247 250 255 260 264 268 271 273 275 277 279 281 282 283 283 283 283 282 281 281 281 280 280 280 280 281 282 282 282 281 279 277 276 275 276 277 279 282 283 284 283 282 279 278 277 277 277 279 282 285 289 293 296
213 213 213 213 212 213 215 217 220 223 224 224 225 225 224 224 225 224 223 222 220 219 222 226 231 236 239 241 242 244 246 249 253 257 262 266 270 273 275 276 278 279 281 282 283 283 283 283 283 282 280 279 278 278 278 278 279 280 281 281 281 279 277 275 275 275 275 276 278 280 282 282 281 279 278 277 276 275 275 276 278 280 283 288 291
213 212 212 212 213 214 216 217 219 222 223 224 225 225 223 222 221 219 219 220 220 222 227 232 235 238 241 243 245 249 253 257 262 266 269 272 274 276 279 281 282 283 283 283 283 283 283 282 281 280 279 278 278 278 278 278 279 280 280 280 279 278 276 275 274 274 275 276 277 279 280 280 280 279 277 276 274 273 273 274 275 277 280 284 288
211 212 213 214 215 215 216 217 217 219 220 220 220 220 218 217 217 218 219 222 225 228 232 236 239 242 245 248 253 257 262 266 270 273 275 277 279 280 282 283 284 284 284 284 283 283 282 281 280 279 278 279 279 280 280 280 280 280 279 278 277 277 276 276 275 275 275 275 276 277 279 279 278 278 277 275 273 272 272 272 272 274 277 281 284
Height
1485 1486 1486 1485 1485 1486 1486 1485 1485 1485 1485 1485 1485 1484 1484 1484 1485 1487 1488 1490 1491 1494 1496 1498 1501 1502 1504 1505 1506 1508 1509 1511 1512 1513 1513 1514 1516 1517 1518 1519 1519 1519 1521 1522 1523 1525 1526 1527 1530 1532 1533 1535 1535 1536 1539 1541 1543 1544 1546 1548 1549 1551 1552 1554 1555 1555 1555 1556 1556 1556 1556 1556 1556 1556 1556 1555 1555 1554 1553 1552 1552 1550 1549 1548 1547
1484 1484 1484 1484 1484 1484 1483 1483 1483 1483 1482 1482 1482 1482 1482 1482 1482 1483 1485 1486 1488 1491 1493 1495 1497 1499 1500 1501 1503 1504 1506 1507 1508 1509 1510 1512 1513 1514 1515 1515 1516 1516 1517 1519 1520 1521 1523 1524 1527 1529 1531 1532 1532 1533 1536 1538 1539 1541 1543 1545 1547 1549 1550 1552 1552 1553 1553 1553 1553 1553 1553 1553 1553 1553 1552 1552 1551 1551 1549 1549 1548 1546 1545 1544 1543
1482 1482 1482 1482 1482 1482 1482 1481 1480 1480 1480 1480 1479 1479 1479 1479 1480 1480 1481 1483 1485 1488 1490 1492 1493 1495 1496 1498 1499 1501 1502 1503 1505 1505 1507 1509 1510 1511 1512 1512 1512 1513 1514 1516 1517 1518 1520 1522 1524 1526 1527 1528 1529 1530 1533 1535 1536 1539 1541 1543 1545 1547 1548 1549 1550 1550 1550 1551 1551 1551 1551 1550 1550 1549 1549 1548 1548 1547 1545 1545 1544 1542 1541 1540 1539
1479 1479 1479 1479 1480 1480 1479 1479 1478 1478 1478 1478 1477 1477 1476 1476 1477 1477 1478 1480 1482 1484 1487 1488 1490 1491 1493 1494 1496 1497 1499 1500 1501 1503 1504 1506 1507 1508 1508 1509 1509 1511 1512 1513 1514 1515 1517 1519 1521 1523 1524 1525 1526 1528 1530 1532 1535 1537 1539 1541 1543 1545 1546 1547 1547 1547 1547 1547 1548 1549 1548 1547 1546 1546 1546 1544 1544 1543 1542 1541 1540 1538 1537 1536 1534
1476 1476 1476 1476 1476 1476 1476 1476 1476 1475 1475 1475 1475 1474 1474 1474 1474 1474 1475 1476 1478 1481 1483 1485 1486 1488 1490 1491 1493 1494 1496 1497 1498 1500 1501 1502 1503 1504 1505 1505 1506 1508 1510 1511 1511 1513 1515 1517 1519 1520 1521 1522 1523 1526 1529 1531 1533 1536 1538 1539 1541 1542 1543 1544 1544 1544 1544 1544 1545 1545 1545 1544 1543 1542 1542 1541 1540 1539 1538 1537 1536 1535 1534 1532 1530
1473 1473 1473 1473 1472 1473 1473 1473 1473 1473 1472 1472 1472 1472 1471 1471 1471 1471 1472 1473 1475 1477 1479 1481 1482 1485 1487 1488 1490 1491 1492 1494 1495 1496 1497 1498 1500 1501 1501 1502 1503 1505 1508 1509 1510 1511 1513 1515 1516 1517 1518 1520 1522 1525 1528 1530 1532 1534 1536 1537 1539 1540 1541 1541 1542 1542 1542 1542 1542 1542 1541 1541 1540 1539 1539 1539 1537 1536 1535 1533 1532 1531 1530 1527 1525
1470 1470 1470 1470 1470 1469 1469 1470 1470 1470 1469 1469 1469 1469 1468 1468 1468 1469 1469 1470 1472 1474 1475 1477 1479 1481 1483 1485 1487 1488 1489 1490 1492 1493 1494 1495 1496 1497 1498 1499 1500 1503 1505 1507 1509 1511 1512 1513 1514 1515 1517 1519 1522 1524 1526 1528 1530 1532 1533 1535 1536 1538 1538 1539 1539 1539 1539 1539 1539 1538 1538 1537 1537 1536 1536 1536 1534 1533 1532 1529 1526 1525 1525 1523 1520
1467 1468 1468 1467 1467 1467 1466 1466 1466 1466 1466 1466 1466 1466 1465 1465 1465 1466 1467 1467 1469 1470 1472 1474 1476 1478 1480 1481 1483 1484 1485 1487 1488 1489 1490 1491 1493 1494 1495 1496 1498 1500 1503 1505 1508 1510 1511 1512 1512 1514 1516 1518 1520 1522 1524 1526 1528 1530 1531 1533 1534 1535 1536 1537 1537 1537 1537 1536 1536 1535 1534 1534 1534 1533 1533 1533 1531 1530 1529 1527 1522 1520 1519 1517 1515
1465 1465 1465 1465 1464 1464 1463 1463 1463 1463 1462 1462 1463 1462 1462 1462 1462 1463 1463 1464 1466 1467 1469 1471 1472 1474 1476 1478 1480 1481 1482 1483 1485 1486 1487 1488 1489 1490 1492 1493 1495 1498 1500 1503 1506 1508 1509 1509 1511 1513 1515 1517 1518 1520 1522 1524 1526 1528 1529 1531 1532 1533 1533 1534 1534 1534 1534 1533 1533 1532 1531 1531 1531 1531 1530 1530 1529 1527 1525 1524 1520 1517 1515 1512 1509
1462 1462 1461 1461 1461 1460 1460 1460 1459 1459 1458 1458 1459 1459 1459 1459 1459 1459 1460 1461 1462 1464 1466 1468 1469 1472 1473 1475 1476 1477 1479 1480 1482 1483 1484 1485 1486 1487 1489 1491 1493 1496 1498 1501 1503 1505 1506 1508 1509 1512 1513 1515 1517 1519 1521 1522 1524 1525 1527 1528 1530 1530 1531 1531 1532 1531 1531 1530 1530 1530 1528 1527 1528 1528 1527 1526 1526 1524 1522 1520 1517 1514 1512 1508 1504
1459 1458 1458 1458 1457 1456 1456 1456 1455 1455 1454 1454 1455 1456 1456 1456 1456 1456 1457 1458 1459 1461 1463 1465 1467 1469 1470 1472 1473 1474 1476 1478 1479 1480 1481 1482 1483 1485 1487 1489 1491 1494 1497 1499 1501 1502 1504 1506 1508 1510 1512 1513 1516 1517 1519 1520 1522 1523 1525 1526 1527 1528 1528 1529 1529 1529 1528 1527 1527 1527 1526 1524 1524 1525 1524 1522 1522 1520 1518 1517 1514 1511 1509 1505 1499
1455 1454 1453 1453 1452 1452 1452 1451 1451 1451 1450 1451 1451 1452 1453 1452 1452 1453 1453 1455 1457 1459 1460 1462 1464 1466 1467 1468 1470 1472 1473 1475 1476 1477 1478 1479 1481 1482 1484 1486 1489 1492 1494 1497 1499 1500 1502 1505 1507 1509 1511 1512 1514 1515 1517 1518 1520 1521 1523 1524 1525 1526 1526 1526 1526 1526 1525 1525 1524 1524 1524 1523 1521 1521 1521 1519 1517 1516 1514 1512 1511 1508 1506 1503 1497
1449 1449 1449 1448 1447 1447 1448 1447 1447 1447 1446 1447 1448 1448 1449 1449 1449 1450 1451 1452 1454 1456 1458 1460 1462 1463 1464 1466 1467 1469 1470 1472 1473 1474 1475 1477 1478 1480 1482 1484 1487 1491 1493 1495 1497 1498 1500 1503 1505 1507 1509 1511 1513 1514 1515 1516 1518 1519 1521 1522 1523 1523 1523 1523 1523 1523 1523 1522 1521 1520 1521 1520 1518 1517 1517 1516 1513 1511 1509 1507 1506 1504 1502 1499 1495
1444 1444 1444 1443 1443 1443 1443 1443 1442 1442 1442 1443 1444 1444 1445 1445 1446 1446 1448 1449 1451 1453 1455 1457 1459 1460 1461 1463 1464 1466 1467 1468 1470 1471 1472 1473 1475 1477 1479 1482 1486 1490 1492 1494 1495 1497 1499 1501 1503 1505 1507 1509 1511 1512 1513 1515 1516 1517 1519 1520 1520 1520 1520 1521 1521 1520 1520 1520 1518 1517 1517 1517 1515 1513 1513 1512 1510 1508 1505 1502 1501 1500 1497 1494 1491
1438 1438 1438 1438 1438 1439 1439 1439 1438 1438 1438 1439 1440 1440 1441 1441 1442 1443 1444 1446 1448 1450 1452 1454 1455 1457 1458 1459 1461 1462 1463 1465 1466 1468 1469 1470 1472 1474 1477 1481 1484 1487 1490 1492 1494 1497 1499 1501 1503 1504 1506 1508 1509 1510 1512 1513 1514 1516 1517 1517 1517 1518 1518 1518 1518 1518 1517 1517 1515 1514 1514 1513 1512 1510 1509 1508 1506 1505 1503 1500 1498 1497 1494 1490 1487
1433 1433 1433 1433 1434 1434 1434 1434 1434 1434 1434 1435 1435 1436 1437 1438 1439 1440 1441 1443 1445 1447 1449 1451 1452 1454 1455 1456 1458 1459 1460 1461 1463 1465 1466 1468 1470 1472 1475 1479 1482 1485 1487 1490 1493 1496 1498 1500 1502 1503 1505 1506 1508 1509 1510 1511 1512 1513 1514 1514 1514 1514 1514 1514 1515 1514 1514 1513 1513 1512 1511 1510 1508 1506 1505 1504 1503 1501 1499 1497 1495 1494 1491 1487 1484
1429 1429 1428 1428 1429 1429 1429 1429 1429 1430 1430 1431 1431 1433 1434 1435 1436 1437 1438 1440 1442 1444 1446 1448 1449 1451 1452 1453 1454 1456 1457 1458 1460 1461 1463 1465 1467 1469 1472 1475 1479 1482 1485 1488 1491 1494 1496 1498 1500 1502 1503 1504 1506 1507 1508 1509 1510 1511 1511 1511 1511 1511 1511 1511 1511 1510 1510 1510 1509 1508 1507 1505 1503 1502 1501 1501 1500 1498 1496 1493 1491 1490 1488 1484 1481
1424 1424 1424 1424 1424 1424 1424 1425 1425 1426 1426 1427 1428 1429 1430 1431 1433 1434 1436 1438 1440 1442 1444 1445 1447 1448 1449 1451 1452 1453 1454 1456 1457 1459 1460 1463 1465 1466 1469 1472 1476 1480 1483 1486 1489 1491 1494 1496 1498 1499 1501 1502 1504 1505 1506 1506 1507 1507 1507 1508 1507 1507 1508 1508 1507 1506 1506 1506 1505 1503 1502 1501 1500 1499 1498 1497 1496 1495 1493 1490 1489 1488 1485 1483 1480
1420 1420 1419 1419 1419 1419 1420 1421 1421 1422 1423 1424 1425 1426 1427 1429 1430 1432 1434 1436 1438 1440 1441 1443 1444 1445 1447 1448 1449 1450 1451 1453 1455 1456 1458 1460 1462 1463 1466 1469 1473 1477 1481 1483 1486 1489 1491 1493 1495 1497 1499 1501 1502 1502 1503 1503 1504 1504 1504 1504 1504 1504 1505 1504 1503 1503 1502 1501 1500 1499 1498 1497 1496 1494 1493 1492 1491 1490 1490 1488 1487 1486 1483 1481 1479
1417 1416 1416 1415 1415 1416 1416 1417 1418 1418 1420 1421 1422 1423 1424 1426 1428 1430 1432 1434 1435 1437 1439 1440 1442 1443 1444 1445 1447 1448 1449 1451 1452 1454 1456 1458 1459 1461 1463 1466 1470 1474 1478 1481 1484 1486 1489 1491 1493 1496 1497 1498 1499 1499 1500 1500 1501 1501 1501 1501 1501 1501 1501 1500 1499 1498 1497 1497 1496 1495 1494 1493 1491 1490 1489 1488 1487 1487 1486 1485 1484 1483 1481 1478 1477
1413 1413 1413 1413 1413 1413 1413 1414 1415 1415 1416 1417 1419 1420 1422 1424 1426 1428 1430 1432 1433 1435 1436 1438 1439 1441 1442 1444 1445 1446 1447 1448 1450 1451 1453 1455 1457 1459 1461 1464 1468 1472 1476 1479 1482 1485 1487 1490 1492 1493 1494 1495 1496 1496 1497 1497 1498 1498 1498 1498 1498 1497 1497 1496 1496 1495 1494 1494 1492 1491 1490 1489 1488 1487 1486 1485 1484 1483 1483 1482 1481 1479 1478 1476 1474
1410 1410 1410 1410 1410 1410 1411 1411 1412 1413 1414 1415 1416 1417 1419 1422 1424 1426 1428 1429 1431 1433 1434 1436 1437 1439 1440 1442 1443 1444 1445 1446 1447 1449 1451 1452 1455 1457 1460 1463 1467 1471 1474 1478 1481 1483 1486 1488 1489 1490 1491 1492 1493 1493 1494 1495 1495 1495 1495 1495 1494 1494 1494 1493 1493 1492 1491 1490 1489 1487 1487 1486 1485 1484 1483 1482 1481 1480 1479 1477 1476 1475 1474 1473 1471
1408 1407 1407 1407 1407 1407 1408 1409 1410 1411 1412 1413 1414 1416 1417 1420 1422 1424 1426 1427 1429 1431 1433 1434 1436 1437 1438 1439 1440 1441 1442 1443 1445 1447 1449 1451 1453 1456 1459 1462 1466 1469 1473 1476 1479 1481 1483 1485 1486 1487 1488 1489 1490 1491 1491 1492 1492 1492 1492 1492 1492 1492 1491 1491 1490 1489 1488 1487 1486 1485 1484 1483 1482 1480 1479 1478 1477 1476 1475 1473 1471 1470 1468 1467 1466
1405 1405 1404 1404 1405 1405 1406 1407 1409 1410 1411 1412 1413 1414 1416 1418 1420 1422 1424 1425 1427 1429 1431 1432 1433 1434 1435 1437 1438 1439 1441 1442 1444 1446 1448 1450 1453 1455 1458 1461 1464 1468 1471 1474 1476 1478 1480 1481 1482 1484 1485 1486 1487 1488 1489 1489 1489 1489 1490 1489 1489 1489 1488 1487 1486 1485 1485 1484 1483 1482 1481 1480 1478 1477 1476 1474 1473 1472 1471 1469 1467 1466 1464 1462 1461
1402 1402 1402 1403 1403 1404 1405 1406 1407 1408 1410 1411 1412 1413 1415 1416 1418 1420 1422 1424 1426 1428 1429 1430 1431 1433 1434 1435 1436 1438 1439 1441 1443 1445 1448 1450 1452 1455 1457 1460 1463 1466 1468 1471 1473 1475 1476 1478 1479 1481 1482 1484 1485 1485 1486 1486 1486 1487 1487 1487 1486 1485 1485 1484 1484 1483 1483 1482 1480 1479 1478 1476 1475 1474 1472 1471 1470 1469 1467 1465 1463 1462 1460 1458 1456
1400 1400 1400 1401 1402 1402 1403 1405 1406 1407 1409 1410 1412 1413 1414 1416 1418 1419 1421 1423 1425 1426 1428 1429 1430 1431 1433 1435 1436 1437 1438 1440 1442 1444 1447 1449 1451 1454 1457 1459 1461 1464 1466 1468 1470 1472 1474 1476 1477 1479 1480 1481 1482 1482 1483 1483 1484 1484 1484 1483 1483 1482 1482 1482 1481 1481 1480 1478 1477 1476 1474 1473 1472 1471 1469 1468 1466 1465 1463 1460 1458 1457 1455 1453 1450
1398 1398 1398 1399 1400 1401 1402 1403 1404 1405 1407 1409 1411 1413 1414 1416 1418 1419 1421 1422 1423 1425 1426 1427 1429 1431 1432 1434 1435 1436 1438 1439 1441 1443 1445 1448 1450 1453 1455 1457 1459 1462 1464 1466 1468 1470 1472 1474 1475 1476 1477 1478 1479 1480 1480 1481 1481 1481 1481 1480 1480 1480 1480 1479 1479 1477 1476 1475 1474 1473 1472 1470 1469 1467 1466 1464 1463 1461 1459 1457 1455 1453 1451 1449 1447
1396 1397 1397 1398 1398 1399 1400 1401 1403 1404 1406 1408 1410 1412 1413 1415 1417 1418 1420 1421 1422 1424 1425 1427 1429 1430 1432 1433 1435 1436 1437 1439 1440 1442 1444 1447 1449 1451 1453 1456 1458 1460 1462 1464 1466 1468 1470 1471 1472 1474 1475 1476 1477 1477 1477 1478 1478 1478 1478 1478 1478 1478 1477 1477 1476 1475 1473 1472 1471 1470 1469 1467 1466 1464 1463 1461 1460 1459 1457 1455 1453 1451 1449 1447 1445
1395 1396 1396 1397 1397 1398 1400 1401 1402 1404 1405 1407 1409 1410 1412 1414 1415 1417 1419 1421 1422 1424 1426 1428 1429 1431 1432 1434 1435 1436 1437 1439 1440 1442 1444 1446 1448 1450 1452 1455 1457 1459 1461 1462 1464 1466 1467 1469 1470 1472 1473 1473 1474 1474 1475 1475 1475 1476 1476 1476 1475 1475 1474 1474 1473 1472 1471 1469 1468 1467 1466 1464 1463 1461 1460 1459 1458 1456 1454 1453 1451 1449 1447 1445 1443
1393 1394 1394 1395 1396 1397 1398 1400 1402 1403 1404 1406 1407 1409 1411 1413 1415 1417 1419 1420 1422 1424 1425 1428 1429 1431 1433 1434 1436 1437 1439 1440 1441 1443 1444 1446 1448 1450 1452 1454 1456 1458 1459 1461 1463 1464 1466 1467 1468 1469 1470 1470 1471 1472 1472 1473 1473 1473 1473 1473 1472 1471 1471 1471 1470 1469 1468 1466 1465 1464 1463 1461 1460 1458 1457 1456 1455 1453 1452 1451 1449 1447 1445 1443 1441
1391 1392 1393 1394 1395 1396 1397 1398 1400 1402 1404 1406 1407 1408 1410 1412 1414 1416 1418 1420 1421 1423 1424 1426 1428 1430 1432 1434 1435 1437 1438 1440 1441 1443 1444 1446 1448 1450 1451 1453 1455 1457 1458 1460 1461 1463 1464 1465 1466 1466 1467 1468 1468 1469 1470 1470 1470 1470 1470 1469 1469 1468 1468 1467 1467 1466 1465 1463 1462 1461 1459 1458 1457 1455 1454 1453 1452 1451 1450 1449 1447 1445 1444 1441 1439
1389 1390 1392 1394 1395 1396 1397 1398 1399 1401 1403 1405 1407 1408 1409 1410 1412 1414 1417 1419 1420 1422 1423 1425 1427 1429 1431 1433 1434 1436 1437 1439 1441 1443 1444 1446 1448 1449 1451 1453 1454 1456 1457 1458 1459 1460 1461 1462 1463 1464 1465 1465 1466 1466 1467 1467 1467 1467 1467 1466 1466 1465 1465 1464 1463 1462 1461 1460 1459 1458 1456 1455 1454 1453 1452 1451 1450 1449 1448 1446 1445 1443 1441 1439 1438
1389 1390 1391 1392 1393 1395 1396 1397 1398 1400 1401 1403 1405 1407 1409 1410 1410 1412 1415 1417 1420 1421 1423 1425 1426 1428 1429 1431 1433 1435 1436 1438 1440 1442 1444 1446 1447 1449 1450 1452 1453 1454 1455 1456 1457 1458 1459 1460 1461 1461 1462 1462 1463 1463 1463 1463 1464 1464 1463 1463 1463 1462 1461 1460 1460 1459 1458 1457 1456 1455 1453 1452 1451 1450 1449 1449 1448 1447 1446 1444 1443 1441 1439 1437 1436
1387 1389 1390 1391 1392 1393 1394 1395 1397 1399 1401 1402 1404 1406 1409 1410 1411 1412 1413 1415 1417 1420 1422 1424 1426 1427 1429 1430 1432 1434 1436 1437 1439 1441 1443 1445 1446 1448 1449 1450 1452 1452 1453 1455 1456 1456 1457 1457 1458 1458 1459 1459 1460 1460 1460 1460 1460 1460 1460 1460 1460 1459 1458 1457 1457 1456 1455 1454 1453 1452 1450 1449 1448 1447 1447 1446 1446 1445 1444 1442 1440 1439 1437 1435 1433
1386 1388 1389 1390 1391 1391 1392 1394 1396 1397 1399 1401 1403 1406 1408 1409 1411 1412 1413 1414 1416 1418 1420 1422 1425 1427 1428 1430 1431 1433 1435 1436 1438 1440 1442 1443 1445 1446 1448 1449 1450 1451 1452 1452 1453 1454 1454 1455 1455 1456 1456 1456 1457 1457 1457 1457 1457 1457 1457 1457 1457 1456 1455 1455 1454 1453 1453 1452 1451 1449 1448 1446 1445 1445 1444 1444 1443 1442 1441 1440 1439 1437 1435 1433 1431
1384 1386 1388 1389 1390 1390 1391 1393 1395 1397 1399 1401 1403 1405 1407 1408 1410 1411 1413 1414 1415 1417 1419 1421 1424 1426 1428 1429 1431 1433 1434 1435 1437 1438 1440 1442 1443 1445 1446 1447 1448 1449 1450 1450 1451 1451 1452 1452 1452 1452 1453 1453 1453 1454 1454 1454 1454 1454 1454 1454 1453 1453 1452 1452 1451 1451 1450 1449 1448 1446 1445 1444 1443 1442 1442 1441 1441 1440 1439 1438 1436 1435 1433 1431 1429
1382 1384 1385 1387 1388 1389 1391 1392 1394 1396 1398 1400 1402 1404 1406 1407 1409 1410 1412 1414 1415 1417 1419 1421 1423 1425 1427 1428 1430 1432 1433 1434 1436 1437 1439 1440 1442 1443 1444 1445 1446 1447 1447 1448 1448 1449 1449 1449 1449 1449 1450 1450 1450 1451 1451 1451 1451 1451 1451 1451 1450 1450 1449 1449 1448 1448 1447 1446 1445 1444 1443 1441 1440 1439 1439 1439 1439 1438 1437 1436 1434 1433 1431 1429 1427
1381 1382 1384 1386 1387 1388 1390 1392 1393 1395 1397 1400 1402 1404 1405 1407 1408 1410 1412 1413 1415 1417 1419 1421 1423 1425 1426 1427 1429 1431 1432 1433 1435 1436 1437 1438 1440 1441 1442 1443 1444 1445 1445 1446 1446 1446 1446 1446 1446 1446 1447 1447 1448 1448 1448 1448 1448 1448 1448 1447 1447 1447 1446 1446 1445 1444 1444 1443 1442 1441 1440 1439 1438 1437 1436 1436 1436 1436 1435 1434 1432 1430 1429 1427 1425
1382 1383 1385 1386 1387 1389 1390 1392 1394 1396 1398 1400 1402 1403 1405 1406 1408 1409 1411 1413 1415 1417 1419 1421 1422 1424 1426 1427 1428 1430 1431 1432 1434 1435 1436 1437 1438 1439 1439 1440 1441 1442 1443 1443 1444 1444 1444 1443 1443 1444 1444 1444 1445 1445 1445 1445 1445 1445 1445 1444 1444 1443 1443 1442 1442 1441 1441 1440 1439 1439 1438 1437 1436 1435 1434 1434 1433 1433 1432 1431 1430 1428 1426 1425 1423
1382 1383 1385 1386 1388 1390 1391 1393 1395 1396 1398 1400 1402 1404 1405 1407 1408 1409 1411 1413 1415 1416 1418 1420 1422 1423 1425 1426 1428 1429 1430 1432 1433 1434 1435 1436 1436 1437 1437 1438 1439 1440 1440 1441 1441 1441 1441 1440 1440 1441 1441 1441 1442 1442 1442 1442 1442 1442 1442 1441 1441 1440 1440 1439 1439 1438 1438 1437 1436 1436 1435 1434 1433 1432 1432 1431 1431 1430 1429 1428 1427 1426 1424 1422 1421
1381 1382 1383 1385 1388 1390 1391 1393 1395 1397 1399 1401 1403 1404 1406 1407 1408 1410 1411 1413 1414 1416 1417 1419 1421 1422 1424 1425 1426 1428 1429 1431 1432 1433 1434 1434 1435 1435 1436 1437 1437 1438 1438 1438 1438 1438 1438 1438 1438 1438 1438 1438 1438 1439 1439 1439 1439 1439 1438 1438 1438 1437 1437 1436 1435 1435 1434 1434 1434 1433 1432 1431 1430 1430 1429 1429 1428 1427 1426 1425 1424 1423 1422 1420 1418
1380 1381 1383 1385 1387 1389 1391 1393 1395 1396 1399 1401 1403 1404 1406 1407 1408 1409 1411 1412 1414 1415 1417 1418 1419 1421 1422 1424 1425 1426 1428 1429 1430 1431 1432 1432 1433 1434 1434 1435 1435 1435 1436 1436 1435 1435 1435 1435 1435 1435 1435 1435 1435 1436 1436 1436 1436 1436 1435 1435 1435 1434 1434 1433 1433 1432 1432 1431 1431 1430 1430 1429 1428 1427 1426 1426 1425 1424 1424 1423 1422 1420 1419 1418 1416
1379 1381 1383 1385 1387 1389 1390 1392 1393 1395 1398 1400 1402 1404 1405 1406 1407 1409 1410 1412 1413 1414 1415 1417 1418 1419 1420 1422 1423 1425 1426 1427 1428 1429 1430 1430 1431 1432 1433 1433 1433 1433 1433 1433 1433 1432 1432 1432 1432 1432 1432 1432 1432 1432 1433 1433 1433 1432 1432 1432 1431 1431 1431 1430 1430 1429 1429 1428 1428 1428 1427 1426 1425 1424 1424 1423 1422 1421 1421 1420 1419 1418 1417 1415 1414
1379 1381 1383 1385 1386 1388 1389 1391 1392 1394 1397 1399 1401 1402 1403 1404 1406 1407 1409 1410 1412 1413 1414 1415 1417 1417 1418 1420 1421 1423 1424 1425 1426 1427 1428 1428 1429 1430 1430 1430 1430 1430 1430 1430 1429 1429 1429 1429 1429 1429 1429 1429 1429 1429 1429 1430 1429 1429 1429 1428 1428 1428 1428 1427 1427 1426 1425 1425 1425 1425 1424 1424 1423 1422 1421 1420 1419 1418 1418 1417 1416 1415 1414 1413 1412
1380 1381 1383 1384 1386 1387 1388 1389 1391 1393 1395 1398 1399 1401 1402 1403 1404 1406 1407 1408 1410 1411 1412 1413 1414 1416 1417 1418 1420 1421 1421 1422 1423 1424 1425 1426 1427 1427 1427 1427 1427 1427 1426 1426 1426 1426 1426 1426 1426 1426 1426 1426 1426 1426 1426 1426 1426 1426 1425 1425 1424 1424 1424 1424 1423 1422 1422 1422 1422 1422 1421 1421 1420 1419 1418 1418 1417 1415 1415 1414 1414 1413 1412 1411 1409
1380 1381 1382 1383 1384 1385 1387 1388 1390 1392 1394 1396 1398 1399 1400 1401 1402 1404 1405 1406 1407 1409 1410 1411 1413 1414 1415 1416 1417 1418 1419 1420 1421 1422 1422 1423 1423 1424 1424 1424 1423 1423 1423 1423 1423 1423 1423 1423 1423 1423 1423 1423 1423 1423 1423 1423 1422 1422 1422 1421 1421 1421 1420 1420 1419 1419 1418 1418 1418 1418 1417 1417 1417 1416 1415 1415 1414 1413 1412 1412 1411 1410 1409 1408 1407
1379 1380 1382 1383 1383 1384 1385 1387 1388 1390 1392 1394 1396 1397 1398 1399 1400 1402 1403 1404 1405 1407 1408 1410 1411 1412 1413 1414 1415 1416 1417 1418 1418 1419 1419 1420 1420 1420 1420 1420 1420 1420 1420 1420 1419 1419 1419 1419 1419 1419 1419 1419 1419 1419 1419 1419 1418 1418 1418 1417 1417 1417 1416 1416 1415 1415 1415 1415 1414 1414 1414 1413 1413 1413 1412 1412 1411 1410 1409 1409 1408 1407 1406 1405 1404
1377 1379 1380 1381 1382 1383 1384 1385 1387 1389 1391 1392 1394 1395 1396 1397 1399 1400 1401 1402 1404 1405 1406 1408 1409 1410 1411 1412 1413 1414 1415 1415 1416 1416 1416 1416 1416 1417 1417 1417 1417 1417 1416 1416 1416 1416 1415 1415 1416 1416 1416 1416 1416 1416 1415 1415 1414 1414 1413 1413 1413 1412 1412 1412 1411 1411 1411 1411 1410 1410 1410 1409 1409 1409 1409 1409 1408 1407 1406 1406 1405 1405 1404 1403 1402
1375 1377 1379 1380 1381 1382 1382 1384 1385 1387 1389 1391 1392 1393 1394 1396 1397 1398 1400 1401 1402 1403 1405 1406 1407 1408 1409 1410 1411 1412 1413 1413 1413 1413 1413 1413 1413 1413 1413 1413 1413 1413 1413 1413 1412 1412 1412 1412 1412 1413 1413 1413 1412 1412 1411 1411 1410 1410 1409 1409 1408 1408 1408 1407 1407 1407 1407 1407 1407 1406 1406 1406 1406 1406 1406 1406 1405 1404 1404 1403 1403 1402 1401 1400 1400
1374 1375 1377 1378 1379 1380 1381 1382 1384 1386 1387 1389 1390 1391 1393 1394 1395 1397 1398 1399 1400 1402 1403 1404 1405 1406 1407 1408 1409 1410 1410 1410 1410 1410 1410 1410 1410 1410 1409 1409 1409 1409 1409 1409 1409 1408 1409 1409 1409 1409 1409 1408 1408 1408 1407 1407 1406 1406 1405 1404 1404 1403 1403 1403 1403 1403 1403 1403 1403 1403 1402 1402 1402 1402 1402 1403 1402 1401 1401 1401 1400 1399 1399 1398 1397
1372 1374 1375 1377 1378 1378 1379 1380 1382 1383 1385 1387 1388 1389 1390 1392 1393 1395 1396 1398 1399 1400 1401 1403 1404 1405 1406 1406 1407 1407 1407 1407 1407 1407 1407 1407 1406 1406 1405 1405 1405 1405 1405 1405 1405 1405 1405 1405 1404 1404 1404 1404 1403 1403 1403 1402 1402 1401 1401 1400 1400 1399 1399 1399 1399 1399 1399 1399 1399 1399 1398 1398 1398 1399 1399 1399 1399 1398 1398 1398 1397 1397 1396 1395 1395